Weather History for South Lake Tahoe, CA

Change the Weather History Date:

Wednesday, November 14, 2012

  Actual Average Record
Temperature  
Mean Temperature 41 °F 37 °F  
Max Temperature 58 °F 51 °F 65 °F (1990)
Min Temperature 24 °F 23 °F 2 °F (1985)
Degree Days  
Heating Degree Days 24 28  
Month to date heating degree days 389 366  
Since 1 July heating degree days 1367 1598  
Cooling Degree Days 0 0  
Month to date cooling degree days 0 0  
Year to date cooling degree days 30 31  
Moisture  
Dew Point 24 °F    
Average Humidity 56    
Maximum Humidity 92    
Minimum Humidity 20    
Precipitation  
Precipitation 0.00 in - 2.99 in (1981)
Month to date precipitation 0.66  
Year to date precipitation 12.54  
Sea Level Pressure  
Sea Level Pressure 30.20 in    
Wind  
Wind Speed 1 mph (SSW)    
Max Wind Speed 10 mph    
Max Gust Speed 14 mph    
Visibility 10 miles    
Events      
T = Trace of Precipitation, MM = Missing Value Source: NWS Daily Summary

Daily Weather History Graph

Daily Weather History Graph

Search for Another Location

Airport:

Trip Planner

Search our weather history database for the weather conditions in past years. The results will help you decide how hot, cold, wet, or windy it might be!

Date:

Astronomy

Nov. 14, 2012 Rise Set
Actual Time 6:42 AM PST 4:46 PM PST
Civil Twilight 6:13 AM PST 5:14 PM PST
Nautical Twilight 5:41 AM PST 5:47 PM PST
Astronomical Twilight 5:09 AM PST 6:18 PM PST
Moon 7:36 AM PST (11/14) 5:40 PM PST (11/14)
Length of Visible Light 11h 01m
Length of Day
10h 04m
New Moon, 1% of the Moon is Illuminated
Nov 14
New Moon
Nov 20
First Quarter
Nov 28
Full
Dec 6
Last Quarter
Dec 13
New

Hourly Weather History & Observations

Time (PST) Temp. Windchill Dew Point Humidity Pressure Visibility Wind Dir Wind Speed Gust Speed Precip Events Conditions
12:53 AM 28.0 °F - 25.0 °F 88% 30.19 in 10.0 mi Calm Calm - N/A   Clear
1:53 AM 28.0 °F - 25.0 °F 88% 30.19 in 10.0 mi Calm Calm - N/A   Clear
2:53 AM 27.0 °F - 24.1 °F 89% 30.19 in 10.0 mi Calm Calm - N/A   Clear
3:53 AM 27.0 °F - 24.1 °F 89% 30.20 in 10.0 mi Calm Calm - N/A   Clear
4:53 AM 26.1 °F - 23.0 °F 88% 30.22 in 10.0 mi Calm Calm - N/A   Clear
5:53 AM 26.1 °F 21.9 °F 21.9 °F 84% 30.24 in 10.0 mi South 3.5 mph - N/A   Clear
6:53 AM 25.0 °F - 21.9 °F 88% 30.26 in 10.0 mi Calm Calm - N/A   Clear
7:53 AM 28.0 °F - 24.1 °F 85% 30.27 in 10.0 mi Calm Calm - N/A   Clear
8:53 AM 36.0 °F 32.1 °F 27.0 °F 70% 30.25 in 10.0 mi South 4.6 mph - N/A   Mostly Cloudy
9:53 AM 42.1 °F - 28.0 °F 58% 30.22 in - Calm Calm - N/A   Unknown
10:53 AM 52.0 °F - 30.0 °F 43% 30.19 in 10.0 mi NE 4.6 mph - N/A   Clear
11:53 AM 55.0 °F - 30.0 °F 38% 30.15 in 10.0 mi NNE 5.8 mph - N/A   Clear
12:53 PM 57.0 °F - 33.1 °F 40% 30.14 in 10.0 mi Variable 3.5 mph - N/A   Clear
1:53 PM 57.0 °F - 28.0 °F 33% 30.13 in 10.0 mi Calm Calm - N/A   Clear
2:53 PM 55.9 °F - 15.1 °F 20% 30.13 in 10.0 mi Variable 3.5 mph - N/A   Clear
3:53 PM 48.0 °F - 25.0 °F 41% 30.15 in 10.0 mi SW 3.5 mph - N/A   Clear
4:53 PM 43.0 °F - 24.1 °F 47% 30.17 in 10.0 mi Calm Calm - N/A   Partly Cloudy
5:53 PM 37.9 °F - 25.0 °F 60% 30.20 in 10.0 mi Calm Calm - N/A   Clear
6:53 PM 34.0 °F 31.0 °F 23.0 °F 64% 30.22 in 10.0 mi SSW 3.5 mph - N/A   Clear
7:53 PM 32.0 °F 27.5 °F 23.0 °F 69% 30.23 in 10.0 mi SSW 4.6 mph - N/A   Clear
8:53 PM 30.9 °F - 21.9 °F 69% 30.22 in 10.0 mi Calm Calm - N/A   Clear
9:53 PM 28.9 °F - 21.0 °F 72% 30.20 in 10.0 mi Calm Calm - N/A   Clear
10:53 PM 28.9 °F - 21.0 °F 72% 30.17 in 10.0 mi Calm Calm - N/A   Clear
11:53 PM 28.9 °F 23.9 °F 19.9 °F 69% 30.15 in 10.0 mi SSW 4.6 mph - N/A   Clear